Location: Ajisawe
(8.4333°N, 4.3833°E)
Time: 21:32:59
(UTC+00:00)

Cosmos 1980 - Pass Details

Date: 07 June 2020
Orbit: 840 x 846 km, 71.0° (Epoch: 10 July)

Event Time Altitude Azimuth Distance (km) Brightness Sun altitude
Exits shadow 03:09:39 71° 59° (ENE) 887 3.8 -30.3°
Drops below altitude 10° 03:14:47 10° 20° (NNE) 2,450 6.7 -29.2°
Sets 03:17:13 0° 19° (NNE) 3,383 7.5 -28.7°
